Location: Unspecified
(0.0000°N, 0.0000°E)
Time: 02:47:36
(UTC+00:00)

NTS 1 - Pass Details

Date: 18 May 2026
Orbit: 13477 x 13743 km, 124.9° (Epoch: 9 June)

Event Time Altitude Azimuth Distance (km) Brightness Sun altitude
Rises 04:34:23 0° 142° (SE) 19,088 ? -19.3°
Reaches altitude 10° 04:52:17 10° 156° (SSE) 18,007 ? -15.1°
Maximum altitude 05:24:50 19° 190° (S) 17,120 ? -7.4°
Drops below altitude 10° 05:57:37 10° 224° (SW) 17,942 ? 0.3°
Sets 06:15:52 0° 239° (WSW) 18,990 ? 4.6°
